This demonstration page uses our WeatherBlox Daily Observations layout. Learn more.

Left ArrowRight Arrow

39.92423, -83.80882

Hourly Observations for January 17, 2015

Temp ( °F °C ) Dew Point ( °F °C ) Humidity (%) Winds ( mph kmh ) Pressure ( in mb ) Visibility ( mi km ) Precip ( " mm )
12:56 am 00:56 Clear with Mist and Fog 25 -3.8 25 -3.8 100 100 SSE 7 11 30.20 1023 3 5 0.00 0.00
1:56 am 01:56 Clear with Mist and Fog 26 -3.3 25 -3.8 96 96 SSE 7 11 30.18 1022 4 6 0.00 0.00
2:56 am 02:56 Clear with Mist and Fog 24 -4.4 22 -5.5 92 92 SSE 5 7 30.18 1022 5 8 0.00 0.00
3:56 am 03:56 Clear with Mist and Fog 26 -3.3 24 -4.4 92 92 SSE 9 15 30.17 1022 5 8 0.00 0.00
4:56 am 04:56 Clear with Mist and Fog 27 -2.7 25 -3.8 92 92 SSE 9 15 30.14 1021 5 8 0.00 0.00
5:56 am 05:56 Clear with Mist and Fog 27 -2.7 25 -3.8 92 92 S 12 19 30.14 1021 5 8 0.00 0.00
6:56 am 06:56 Clear with Mist and Fog 27 -2.7 25 -3.8 92 92 SSE 10 17 30.12 1020 5 8 0.00 0.00
7:56 am 07:56 Sunny with Mist and Fog 27 -2.7 25 -3.8 92 92 SSE 7 11 30.11 1020 4 6 0.00 0.00
8:56 am 08:56 Sunny with Mist and Fog 30 -1.1 27 -2.7 89 89 SSE 8 13 30.09 1019 5 8 0.00 0.00
9:56 am 09:56 Hazy 35 1.6 30 -1.1 82 82 S 12 19 30.07 1018 6 10 0.00 0.00
10:56 am 10:56 Sunny 40 4.4 31 -0.5 71 71 SSW 12 19 30.06 1018 7 11 0.00 0.00
11:56 am 11:56 Sunny 44 6.6 32 0 63 63 SSW 16 26 30.03 1017 8 13 0.00 0.00
12:56 pm 12:56 Sunny 46 7.7 32 0 59 59 SW 15 24 29.98 1015 8 13 0.00 0.00
1:56 pm 13:56 Sunny 47 8.3 32 0 56 56 SSW 17 28 29.94 1014 8 13 0.00 0.00
2:56 pm 14:56 Sunny 49 9.4 33 0.5 54 54 SSW 14 22 29.91 1013 9 14 0.00 0.00
3:56 pm 15:56 Sunny 49 9.4 31 -0.5 50 50 SSW 14 22 29.87 1011 9 14 0.00 0.00
4:56 pm 16:56 Sunny 47 8.3 32 0 56 56 S 9 15 29.87 1012 9 14 0.00 0.00
5:56 pm 17:56 Clear 45 7.2 31 -0.5 58 58 S 8 13 29.87 1012 10 16 0.00 0.00
6:56 pm 18:56 Clear 44 6.6 30 -1.1 58 58 S 13 20 29.85 1011 10 16 0.00 0.00
7:56 pm 19:56 Clear 43 6.1 30 -1.1 60 60 S 12 19 29.85 1011 10 16 0.00 0.00
8:56 pm 20:56 Clear 44 6.6 30 -1.1 58 58 SSW 13 20 29.84 1011 10 16 0.00 0.00
9:56 pm 21:56 Mostly Clear 44 6.6 29 -1.6 56 56 SSW 14 22 29.83 1010 10 16 0.00 0.00
10:56 pm 22:56 Cloudy 44 6.6 29 -1.6 56 56 SSW 15 24 29.81 1010 10 16 0.00 0.00
11:56 pm 23:56 Cloudy 45 7.2 29 -1.6 54 54 SSW 16 26 29.80 1009 10 16 0.00 0.00

Powered by AerisWeather